This is the latest recevied weather packets stored in our database for station/object OK2JF-6. If no packets are shown the sender has not sent any weather packets the latest 10 day(s).
| Time | Temp. | Humidity | Pressure | Rain* | Wind** | Luminosity | Snow |
|---|---|---|---|---|---|---|---|
| 1777326423 | 4.44° C | 68% | 1092.1 hPa | 0 mm | - | 0 W/m² | - |
| 1777326003 | 4.44° C | 69% | 1092 hPa | 0 mm | - | 0 W/m² | - |
| 1777325643 | 5° C | 67% | 1092 hPa | 0 mm | - | 0 W/m² | - |
| 1777324743 | 5° C | 71% | 1091.9 hPa | 0 mm | - | 0 W/m² | - |
| 1777324563 | 4.44° C | 70% | 1091.8 hPa | 0 mm | - | 0 W/m² | - |
| 1777324443 | 5° C | 64% | 1091.8 hPa | 0 mm | - | 0 W/m² | - |
| 1777324384 | 5° C | 64% | 1091.8 hPa | 0 mm | - | 0 W/m² | - |
| 1777324323 | 5° C | 64% | 1091.8 hPa | 0 mm | - | 0 W/m² | - |
| 1777324219 | 5° C | 64% | 1092 hPa | 0 mm | - | 0 W/m² | - |
| 1777323603 | 5° C | 61% | 1092 hPa | 0 mm | - | 0 W/m² | - |
| 1777323363 | 5° C | 62% | 1091.9 hPa | 0 mm | - | 0 W/m² | - |
| 1777323123 | 5.56° C | 60% | 1091.7 hPa | 0 mm | - | 0 W/m² | - |
| 1777322703 | 5.56° C | 62% | 1091.9 hPa | 0 mm | - | 0 W/m² | - |
| 1777322643 | 5.56° C | 63% | 1091.8 hPa | 0 mm | - | 0 W/m² | - |
| 1777321563 | 6.11° C | 58% | 1091.9 hPa | 0 mm | - | 0 W/m² | - |
| 1777321323 | 6.11° C | 55% | 1091.7 hPa | 0 mm | - | 0 W/m² | - |
| 1777321143 | 6.11° C | 55% | 1091.8 hPa | 0 mm | - | 0 W/m² | - |
| 1777320783 | 6.67° C | 54% | 1091.9 hPa | 0 mm | - | 0 W/m² | - |
| 1777320723 | 6.67° C | 54% | 1091.9 hPa | 0 mm | - | 0 W/m² | - |
| 1777320317 | 6.67° C | 54% | 1092 hPa | 0 mm | - | 0 W/m² | - |
| 1777319944 | 7.22° C | 54% | 1091.9 hPa | 0 mm | - | 0 W/m² | - |
| 1777319824 | 7.22° C | 53% | 1091.9 hPa | 0 mm | - | 0 W/m² | - |
| 1777319643 | 7.22° C | 52% | 1091.9 hPa | 0 mm | - | 0 W/m² | - |
| 1777319283 | 7.78° C | 52% | 1091.8 hPa | 0 mm | - | 0 W/m² | - |
| 1777318443 | 8.33° C | 49% | 1092.1 hPa | 0 mm | - | 0 W/m² | - |
* Rain latest hour (hover to see other rain measurements)
** Current wind speed in m/s (hover to see current wind gust speed)